Tracking 20945 objects as of 9-Jul-2020
HD Live streaming from Space Station
objects crossing your sky now

DELTA 1 DEB

Track DELTA 1 DEB now!
10-day predictions


NORAD ID: 720
Int'l Code: 1963-054C
Perigee: 665.4 km
Apogee: 819.6 km
Inclination: 58.5 °
Period: 99.5 minutes
Semi major axis: 7113 km
RCS: 0.0483 m2 (small)
Launch date: December 21, 1963
Source: United States (US)
Launch site: AIR FORCE WESTERN TEST RANGE (AFWTR)

Note: This is SATELLITE DEBRIS
aabbcc
Your satellite tracking list
Your tracking list is empty




NASA's NSSDC Master Catalog

Two Line Element Set (TLE):
1   720U 63054C   20190.70872253 -.00000075 +00000-0 +23931-4 0  9998
2   720 058.4736 301.7168 0108361 223.0418 136.2097 14.47040512967186
Source of the keplerian elements: AFSPC